Погода в Подгородном

Украина / Днепропетровская область     48°34′29″N   35°06′08″E
темп.,
°C
ветер,
м/с
пор.,
м/с
влажн.,
%
обл.,
%
осадки,
мм/ч
давл.,
гПа
погр.,
м
20 мая, пт
пт2000:00+14сз386125 0.0 1019235
03:00+10зсз378094 0.0 1019161
06:00+10зсз3877100 0.0 1019225
09:00+15сз58546 0.0 1020614
12:00+20сз68415 0.0 10191707
15:00+19сз575366 0.2 10181437
18:00+18сз576297 0.8 10171239
21:00+16зсз257186 0.9 1017283
21 мая, сб
сб2100:00+14юз2382100 0.1 101680
03:00+13ююз498286 0.2 1013228
06:00+14юз41275100 0.0 1011315
09:00+19зюз61163100 0.0 1010594
12:00+24з8115654 0.3 10081766
15:00+23з71260100 1.3 10071527
18:00+19з61477100 1.6 1007925
21:00+18зюз61379100 1.8 1006785
22 мая, вс
вс2200:00+17з6138991 0.4 1005766
03:00+14зсз713862 0.4 1005703
06:00+12зсз5128572 0.0 1005635
09:00+16зсз586445 0.0 10041240
12:00+19зсз694898 0.1 10022047
15:00+17зсз71060100 0.7 10021467
18:00+15зсз7106686 1.1 10021396
21:00+12зсз5881100 1.4 1003714
23 мая, пн
пн2300:00+11сз4782100 0.0 1003569
03:00+10сз4685100 0.1 1003451
06:00+10ссз468975 0.0 1004432
09:00+10св4583100 0.2 1006467
12:00+10св467999 0.1 1007693
15:00+11св366885 0.1 1008793
18:00+13ссв476597 0.2 1008732
21:00+11с367342 0.5 1010291
24 мая, вт
вт2400:00+8ссв257866 0.0 1012132
03:00+7ссз24780 0.0 101399
06:00+7ссз24745 0.0 1014125
09:00+12ссз35565 0.0 1015710
12:00+16ссз4540100 0.1 10152450
15:00+16с3438100 0.1 10152012
18:00+16сз3541100 0.0 10161523
21:00+12с246055 0.0 1018131